• Em Portugal
  • Lista de países
  • Para 7 dias
  • Temperatura da água
  • Mapas de satélite
  • Mapa do tempo
  • Widgets de tempo
  • user-avatar
    Iniciar Sessão

    Previsão horária em Lomnica

    Hoje, 25 Abril, Quarta-feira

    Tempo Temperatura Precipitação Vento Pressão Humidade
    00:00 +12°C° 0 mm 1 m/s 728 mmHg 87%
    01:00 +12°C° 0 mm 2 m/s 727 mmHg 89%
    02:00 +10°C° 0 mm 2 m/s 727 mmHg 89%
    03:00 +10°C° 0 mm 2 m/s 726 mmHg 90%
    04:00 +10°C° 0 mm 2 m/s 726 mmHg 90%
    05:00 +11°C° 0 mm 3 m/s 726 mmHg 84%
    06:00 +12°C° 0 mm 4 m/s 725 mmHg 78%
    07:00 +13°C° 0 mm 5 m/s 725 mmHg 71%
    08:00 +15°C° 0 mm 6 m/s 725 mmHg 67%
    09:00 +17°C° 0 mm 7 m/s 725 mmHg 62%
    10:00 +18°C° 0 mm 7 m/s 725 mmHg 57%
    11:00 +20°C° 0,1 mm 8 m/s 724 mmHg 56%
    12:00 +20°C° 0,1 mm 8 m/s 724 mmHg 55%
    13:00 +21°C° 0,1 mm 8 m/s 724 mmHg 54%
    14:00 +20°C° 0,4 mm 8 m/s 724 mmHg 58%
    15:00 +18°C° 0,4 mm 8 m/s 724 mmHg 61%
    16:00 +17°C° 0,4 mm 8 m/s 723 mmHg 65%
    17:00 +15°C° 0,1 mm 7 m/s 724 mmHg 69%
    18:00 +14°C° 0,1 mm 6 m/s 724 mmHg 73%
    19:00 +12°C° 0,1 mm 4 m/s 724 mmHg 76%
    20:00 +11°C° 0 mm 4 m/s 725 mmHg 79%
    21:00 +10°C° 0 mm 3 m/s 726 mmHg 82%
    22:00 +8°C° 0 mm 2 m/s 726 mmHg 85%
    23:00 +8°C° 0 mm 2 m/s 726 mmHg 85%

    Amanhã, 26 Abril, Quinta-feira

    Tempo Temperatura Precipitação Vento Pressão Humidade
    00:00 +8°C° 0 mm 2 m/s 727 mmHg 86%
    01:00 +7°C° 0 mm 2 m/s 727 mmHg 86%
    02:00 +7°C° 0 mm 2 m/s 727 mmHg 86%
    03:00 +7°C° 0 mm 2 m/s 727 mmHg 85%
    04:00 +7°C° 0 mm 2 m/s 727 mmHg 85%
    05:00 +8°C° 0 mm 2 m/s 727 mmHg 82%
    06:00 +9°C° 0 mm 3 m/s 727 mmHg 80%
    07:00 +10°C° 0 mm 4 m/s 728 mmHg 77%
    08:00 +10°C° 0,1 mm 5 m/s 728 mmHg 70%
    09:00 +12°C° 0,1 mm 5 m/s 728 mmHg 62%
    10:00 +11°C° 0,1 mm 6 m/s 728 mmHg 55%
    11:00 +13°C° 0,1 mm 6 m/s 728 mmHg 52%
    12:00 +14°C° 0,1 mm 7 m/s 727 mmHg 49%
    13:00 +14°C° 0,1 mm 7 m/s 727 mmHg 46%
    14:00 +14°C° 0,1 mm 7 m/s 727 mmHg 47%
    15:00 +12°C° 0,1 mm 7 m/s 727 mmHg 48%
    16:00 +11°C° 0,1 mm 7 m/s 728 mmHg 49%
    17:00 +10°C° 0 mm 6 m/s 728 mmHg 55%
    18:00 +9°C° 0 mm 5 m/s 728 mmHg 61%
    19:00 +8°C° 0 mm 3 m/s 729 mmHg 66%
    20:00 +7°C° 0 mm 3 m/s 729 mmHg 70%
    21:00 +7°C° 0 mm 3 m/s 730 mmHg 74%
    22:00 +5°C° 0 mm 3 m/s 730 mmHg 77%
    23:00 +5°C° 0 mm 2 m/s 730 mmHg 79%

    Depois de amanhã, 27 Abril, Sexta-feira

    Tempo Temperatura Precipitação Vento Pressão Humidade
    00:00 +5°C° 0 mm 2 m/s 730 mmHg 80%
    01:00 +5°C° 0 mm 2 m/s 731 mmHg 82%
    02:00 +4°C° 0 mm 2 m/s 731 mmHg 83%
    03:00 +4°C° 0 mm 2 m/s 730 mmHg 84%
    04:00 +4°C° 0 mm 2 m/s 730 mmHg 85%
    05:00 +5°C° 0 mm 2 m/s 730 mmHg 79%
    06:00 +7°C° 0 mm 2 m/s 731 mmHg 74%
    07:00 +8°C° 0 mm 2 m/s 731 mmHg 69%
    08:00 +10°C° 0 mm 2 m/s 731 mmHg 62%
    09:00 +12°C° 0 mm 2 m/s 731 mmHg 56%
    10:00 +14°C° 0 mm 2 m/s 731 mmHg 49%
    11:00 +14°C° 0 mm 3 m/s 730 mmHg 47%
    12:00 +14°C° 0 mm 3 m/s 730 mmHg 45%
    13:00 +16°C° 0 mm 3 m/s 729 mmHg 43%
    14:00 +17°C° 0 mm 3 m/s 729 mmHg 44%
    15:00 +17°C° 0 mm 3 m/s 728 mmHg 44%
    16:00 +17°C° 0 mm 4 m/s 727 mmHg 45%
    17:00 +16°C° 0 mm 3 m/s 727 mmHg 53%
    18:00 +13°C° 0 mm 3 m/s 727 mmHg 62%
    19:00 +12°C° 0 mm 3 m/s 726 mmHg 70%
    20:00 +11°C° 0 mm 3 m/s 726 mmHg 73%
    21:00 +10°C° 0 mm 3 m/s 726 mmHg 77%
    22:00 +10°C° 0 mm 3 m/s 726 mmHg 80%
    23:00 +10°C° 0 mm 3 m/s 726 mmHg 79%

    28 Abril, Sábado

    Tempo Temperatura Precipitação Vento Pressão Humidade
    00:00 +11°C° 0 mm 4 m/s 726 mmHg 78%
    01:00 +11°C° 0 mm 4 m/s 726 mmHg 77%
    02:00 +11°C° 0 mm 4 m/s 726 mmHg 78%
    03:00 +12°C° 0 mm 4 m/s 726 mmHg 79%
    04:00 +12°C° 0 mm 4 m/s 726 mmHg 79%
    05:00 +12°C° 0 mm 4 m/s 726 mmHg 79%
    06:00 +13°C° 0 mm 4 m/s 727 mmHg 79%
    07:00 +13°C° 0 mm 3 m/s 727 mmHg 78%
    08:00 +14°C° 0 mm 4 m/s 727 mmHg 69%
    09:00 +17°C° 0 mm 4 m/s 728 mmHg 61%
    10:00 +17°C° 0 mm 5 m/s 728 mmHg 52%
    11:00 +19°C° 0 mm 5 m/s 728 mmHg 49%
    12:00 +19°C° 0 mm 5 m/s 728 mmHg 46%
    13:00 +20°C° 0 mm 5 m/s 728 mmHg 43%
    14:00 +20°C° 0 mm 5 m/s 728 mmHg 43%
    15:00 +19°C° 0 mm 4 m/s 728 mmHg 44%
    16:00 +19°C° 0 mm 4 m/s 728 mmHg 45%
    17:00 +17°C° 0 mm 3 m/s 728 mmHg 53%
    18:00 +15°C° 0 mm 2 m/s 728 mmHg 61%
    19:00 +13°C° 0 mm 2 m/s 728 mmHg 69%
    20:00 +12°C° 0 mm 1 m/s 729 mmHg 73%
    21:00 +11°C° 0 mm 1 m/s 729 mmHg 78%
    22:00 +10°C° 0 mm 1 m/s 730 mmHg 82%
    23:00 +10°C° 0 mm 1 m/s 730 mmHg 83%

    29 Abril, Domingo

    Tempo Temperatura Precipitação Vento Pressão Humidade
    00:00 +9°C° 0 mm 1 m/s 729 mmHg 84%
    01:00 +9°C° 0 mm 1 m/s 729 mmHg 85%
    02:00 +9°C° 0 mm 1 m/s 729 mmHg 85%
    03:00 +8°C° 0 mm 2 m/s 729 mmHg 86%
    04:00 +8°C° 0 mm 2 m/s 729 mmHg 86%
    05:00 +9°C° 0 mm 2 m/s 729 mmHg 82%
    06:00 +10°C° 0 mm 3 m/s 729 mmHg 78%
    07:00 +11°C° 0 mm 3 m/s 729 mmHg 74%
    08:00 +13°C° 0 mm 4 m/s 729 mmHg 70%
    09:00 +15°C° 0 mm 4 m/s 729 mmHg 67%
    10:00 +17°C° 0 mm 4 m/s 729 mmHg 63%
    11:00 +19°C° 0 mm 4 m/s 728 mmHg 62%
    12:00 +20°C° 0 mm 4 m/s 728 mmHg 62%
    13:00 +21°C° 0 mm 4 m/s 727 mmHg 61%
    14:00 +21°C° 0,5 mm 4 m/s 727 mmHg 64%
    15:00 +21°C° 0,5 mm 4 m/s 726 mmHg 66%
    16:00 +21°C° 0,5 mm 4 m/s 726 mmHg 68%
    17:00 +20°C° 0,5 mm 3 m/s 725 mmHg 74%
    18:00 +19°C° 0,5 mm 3 m/s 725 mmHg 79%
    19:00 +17°C° 0,5 mm 3 m/s 725 mmHg 85%
    20:00 +17°C° 0,1 mm 3 m/s 724 mmHg 87%
    21:00 +16°C° 0,1 mm 2 m/s 724 mmHg 89%
    22:00 +15°C° 0,1 mm 2 m/s 724 mmHg 91%
    23:00 +15°C° 0 mm 2 m/s 724 mmHg 92%

    30 Abril, Segunda-feira

    Tempo Temperatura Precipitação Vento Pressão Humidade
    00:00 +15°C° 0 mm 2 m/s 723 mmHg 92%
    01:00 +15°C° 0 mm 2 m/s 723 mmHg 93%
    02:00 +14°C° 0,1 mm 3 m/s 722 mmHg 93%
    03:00 +13°C° 0,1 mm 3 m/s 722 mmHg 93%
    04:00 +13°C° 0,1 mm 3 m/s 722 mmHg 93%
    05:00 +14°C° 0 mm 3 m/s 721 mmHg 89%
    06:00 +15°C° 0 mm 4 m/s 721 mmHg 85%
    07:00 +17°C° 0 mm 5 m/s 721 mmHg 80%
    08:00 +19°C° 0 mm 5 m/s 721 mmHg 73%
    09:00 +21°C° 0 mm 6 m/s 721 mmHg 65%
    10:00 +23°C° 0 mm 6 m/s 721 mmHg 57%
    11:00 +23°C° 0 mm 6 m/s 720 mmHg 54%
    12:00 +24°C° 0 mm 7 m/s 720 mmHg 52%
    13:00 +26°C° 0 mm 7 m/s 720 mmHg 50%
    14:00 +26°C° 0,2 mm 6 m/s 720 mmHg 52%
    15:00 +24°C° 0,2 mm 6 m/s 720 mmHg 55%
    16:00 +25°C° 0,2 mm 5 m/s 720 mmHg 57%
    17:00 +21°C° 0,7 mm 5 m/s 721 mmHg 67%
    18:00 +19°C° 0,7 mm 5 m/s 722 mmHg 76%
    19:00 +15°C° 0,7 mm 5 m/s 722 mmHg 85%
    20:00 +14°C° 0,6 mm 5 m/s 723 mmHg 87%
    21:00 +12°C° 0,6 mm 5 m/s 724 mmHg 88%
    22:00 +11°C° 0,6 mm 4 m/s 724 mmHg 89%
    23:00 +11°C° 0 mm 4 m/s 725 mmHg 88%
    Mostrar mais